www.pogodaiklimat.ru

Погода и климат >> Архив погоды >> Туркменистан >> Туркменабад


АРХИВ ПОГОДЫ в Туркменабаде

Время (UTC), дата Ветер
(напр.,м/с)
 
Видим.   Явления Облачность Т
(С)
Тd
(С)
f
(%)
Тe
(С)
Тes
(С)
Комфортность P
(гПа)
Po
(гПа)
Тmin
(С)
Tmax
(С)
R
(мм)
R24
(мм)
S
(см)
00 10.09 С 3 10 км ясно +14.1 +3.2 48 +13 +13 по сезону 1021.2 998.1
03 10.09 СВ 3 10 км ясно +13.5 +3.8 52 +13 +14 очень
холодно
1022.2 999.1 +12.1
06 10.09 С 5 10 км ясно +22.6 +1.3 24 +22 +28 комфорт 1022.1 999.7 +12.1
09 10.09 С 4 10 км ясно +24.6 +0.4 20 +23 +32 комфорт 1020.9 998.6
12 10.09 С 5 10 км ясно +25.1 0.0 19 +24 +25 комфорт 1019.2 997.1
15 10.09 С 3 10 км ясно +22.5 +1.5 25 +22 +22 комфорт 1019.3 997.0 +25.5
18 10.09 С 4 10 км ясно +19.3 +1.5 30 +19 +19 по сезону 1019.5 997.0 +25.5
21 10.09 СВ 5 10 км ясно +16.3 +1.7 37 +15 +15 по сезону 1019.5 996.7
00 11.09 С 4 10 км ясно +13.7 +3.2 49 +12 +12 прохладно 1019.4 996.6
03 11.09 С 3 10 км ясно +14.1 +3.2 48 +13 +15 очень
холодно
1020.6 997.5 +12.5
06 11.09 С 3 10 км ясно +22.3 +4.5 31 +22 +32 комфорт 1020.5 998.1 +12.5
09 11.09 С 5 10 км 3/0
[Ci fib]
+26.1 +1.1 20 +25 +31 комфорт 1019.2 997.2
12 11.09 С 6 10 км ясно +26.9 +0.4 18 +25 +26 комфорт 1018.2 996.3
15 11.09 С 4 10 км ясно +23.7 +1.3 23 +23 +23 комфорт 1018.7 996.5 +27.3
18 11.09 С 2 10 км ясно +20.8 +0.6 26 +22 +22 комфорт 1019.8 996.5 +27.3
21 11.09 С 4 10 км ясно +17.1 +2.7 38 +17 +17 по сезону 1019.2 996.5
00 12.09 С 3 10 км ясно +14.4 +3.4 48 +14 +14 по сезону 1019.6 996.7
03 12.09 С 3 н/о +14.9 +2.7 44 +14 +16 холодно 1019.3 996.4 +12.6
06 12.09 С 3 10 км ясно +23.1 +2.9 27 +23 +32 комфорт 1019.0 996.8 +12.6
09 12.09 С 2 10 км ясно +27.3 +3.2 21 +26 +39 жарко 1017.4 995.5
12 12.09 СВ 3 10 км ясно +28.4 -0.2 16 +26 +29 жарко 1015.7 993.8
15 12.09 С 2 10 км ясно +25.1 +3.4 24 +24 +24 комфорт 1015.7 993.6 +28.4
18 12.09 С 3 10 км ясно +21.5 +1.7 27 +21 +21 комфорт 1016.3 993.9 +28.4
21 12.09 С 4 10 км ясно +18.0 -0.2 29 +18 +18 тепло 1015.5 992.9
00 13.09 С 3 10 км ясно +15.4 +1.1 38 +15 +15 по сезону 1015.5 992.6
03 13.09 С 3 10 км ясно +14.7 +1.7 41 +14 +15 холодно 1016.3 993.4 +12.4
06 13.09 С 2 10 км ясно +22.7 +4.1 30 +23 +34 комфорт 1016.8 994.6 +12.4
09 13.09 С 4 10 км 3/3 1500 м
[Sc]
+27.8 +2.5 20 +26 +32 жарко 1015.7 993.8
12 13.09 С 6 10 км 3/3 1500 м
[Sc]
+29.6 +1.1 16 +27 +28 жарко 1014.0 992.3
15 13.09 С 2 10 км 3/0
[Ac trans]
+26.4 +3.0 22 +25 +25 комфорт 1014.6 992.6 +30.0
18 13.09 С 3 10 км 3/0
[Ac trans]
+23.5 -1.2 19 +22 +22 комфорт 1015.0 992.8 +30.0
21 13.09 С 4 10 км ясно +18.6 +0.4 29 +19 +19 тепло 1015.4 992.9
00 14.09 С 3 10 км 6/0
[Ac trans]
+17.1 0.0 31 +17 +17 тепло 1015.7 993.0
03 14.09 С 3 10 км 9/0
[Ac trans]
+18.1 +1.1 32 +18 +19 прохладно 1016.6 994.0 +16.7
06 14.09 С 3 10 км 9/3 1500 м
[Cb cap Ac und]
+24.3 +2.1 23 +23 +26 комфорт 1017.3 995.1 +16.7
09 14.09 С 4 10 км 9/0
[Ac trans]
+28.5 -2.2 13 +26 +29 жарко 1016.3 994.4
12 14.09 С 5 10 км 6/0
[Ac trans]
+29.0 -0.9 14 +26 +27 жарко 1015.5 993.7
15 14.09 С 6 10 км 8/3 1500 м
[Cb cap Ac und]
+25.6 +2.5 22 +24 +24 комфорт 1016.4 994.3 +29.1
18 14.09 СЗ 2 10 км 8/3
[Cb cap Ac trans]
+22.5 +4.8 32 +23 +23 комфорт 1017.6 995.4 +29.1
21 14.09 СЗ 2 10 км 8/0
[Ci fib]
+19.5 +6.1 42 +21 +21 комфорт 1017.7 995.2
00 15.09 штиль 0 10 км ясно +14.8 +5.0 52 +15 +15 по сезону 1018.1 995.2
03 15.09 штиль 0 10 км ясно +15.1 +4.1 48 +15 +17 холодно 1019.0 996.1 +13.1
06 15.09 С 4 10 км ясно +24.8 +3.4 25 +24 +32 комфорт 1019.9 997.7 +13.1
09 15.09 С 4 10 км ясно +27.6 0.0 17 +25 +34 комфорт 1019.3 997.4
12 15.09 С 4 10 км ясно +27.9 -2.5 14 +25 +27 комфорт 1018.5 996.6
15 15.09 С 3 10 км ясно +24.6 +0.4 20 +23 +23 комфорт 1019.2 997.0 +27.9
18 15.09 С 3 10 км ясно +21.2 +1.7 27 +21 +21 комфорт 1020.0 997.5 +27.9
21 15.09 СВ 3 10 км ясно +17.0 +4.6 44 +17 +17 по сезону 1019.7 997.0
00 16.09 С 2 10 км ясно +15.6 +4.5 48 +16 +16 тепло 1020.1 997.3
03 16.09 штиль 0 10 км ясно +14.7 +5.5 54 +15 +17 холодно 1020.8 997.8 +11.7
06 16.09 С 2 10 км 1/0
[Ci fib]
+26.2 +1.9 21 +25 +36 комфорт 1021.3 999.2 +11.7
09 16.09 СВ 5 10 км ясно +27.4 -1.4 15 +25 +31 комфорт 1020.4 998.3
12 16.09 С 6 10 км ясно +27.8 -3.8 12 +25 +26 комфорт 1018.8 996.9
15 16.09 С 2 10 км ясно +24.7 +1.9 23 +24 +24 комфорт 1019.0 996.9 +28.4
18 16.09 СВ 1 10 км ясно +20.2 +6.5 41 +22 +22 комфорт 1020.2 997.6 +28.4
21 16.09 штиль 0 10 км ясно +15.0 +4.0 48 +15 +15 по сезону 1019.8 996.9

 

Местоположение метеостанции Туркменабад (Лебапский велаят, Туркменистан): широта 39.08 долгота 63.60 высота над уровнем моря 190 м.

В архиве по умолчанию представлена погода в Туркменабаде за последнюю неделю. Архивные данные за месяц целиком и за предыдущие месяцы, начиная с января 2011 года, Вы можете получить, выбрав интересующий диапазон дат из раскрывающегося списка и нажав кнопку "Ввод!".


*Определитесь, кто Вы:
робот инопланетянин человек

Внимание! Время в таблицах - всемирное. Для получения местного времени необходимо прибавить поправку, которая равна 5 ч.

Смотрите также архив погоды в соседних городах и на ближайших метеорологических станциях:

Погода в Каракуле (Бухарская область, Узбекистан) (51 км)
Погода в Бурдалыке (Лебапский велаят, Туркменистан) (95 км)
Погода в Бухаре (Бухарская область, Узбекистан) (113 км)
Погода в Багтыярлыке (Марыйский велаят, Туркменистан) (131 км)
Погода в Карши (Кашкадарьинская область, Узбекистан) (186 км)
Погода в Навои (Навоийская область, Узбекистан) (190 км)
Погода в Дарганате (Лебапский велаят, Туркменистан) (191 км)
Погода в Айякагитме (Узбекистан) (193 км)
Погода в Атамурате (Лебапский велаят, Туркменистан) (197 км)
Погода в Джангельды (Бухарская область, Узбекистан) (198 км)

Пояснения к столбцам:

Ветер - указаны скорость ветра в м/с - средняя за 10 мин, порывы в срок и между сроками (в фигурных скобках) и направление, откуда дует ветер: С - северный, СВ - северо-восточный, В - восточный, ЮВ - юго-восточный, Ю - южный, ЮЗ - юго-западный, З - западный, СЗ - северо-западный.
Видимость - горизонтальная дальность видимости в метрах или километрах. При видимости от 1 до 10 км при отсутствии осадков обычно наблюдается дымка, при ухудшении видимости до 1 км и менее - туман. В сухую погоду видимость может ухудшаться дымом, пылью или мглою.
Явления - указаны атмосферные явления, наблюдавшиеся в срок или в последний час перед сроком; фигурными скобками обозначены явления, наблюдавшиеся между сроками (за 1-3 часа до срока); квадратными скобками обозначены град или гололедные отложения с указанием их диаметра в мм.
Облачность - указаны через наклонную черту общая и нижняя облачность в баллах и высота нижней границы облаков в метрах; квадратными скобками обозначены формы облаков: Ci - перистые, Cs - перисто-слоистые, Cc - перисто-кучевые, Ac - высококучевые, As - высокослоистые, Sc - слоисто-кучевые, Ns - слоисто-дождевые, Cu - кучевые, Cb - кучево-дождевые. Подробнее классификацию облаков см. в Атласе облаков (PDF).
T - Температура воздуха - температура, измеренная на высоте 2 м над землей.
Td - Температура точки росы - температура, при понижении до которой содержащийся в воздухе водяной пар достигнет насыщения.
f - Относительная влажность воздуха - влажноcть воздуха, измеренная на высоте 2 м над землей.
Te - Эффективная температура - температура, которую ощущает одетый по сезону человек в тени. Характеристика душности погоды. При расчете учитывается влияние влажности воздуха и скорости ветра на теплоощущения человека.
Tes - Эффективная температура на солнце - температура, которую ощущает человек, с поправкой на солнечный нагрев. Характеристика знойности погоды. Зависит от высоты солнца над горизонтом, облачности и скорости ветра. Ночью, в пасмурную погоду, а также при ветре 12 м/с и более поправка равна нулю.
P - Атмосферное давление - приведенное к уровню моря атмосферное давление.
Po - Атмосферное давление - измеренное на уровне метеостанции атмосферное давление.
Tmin - Минимальная температура - минимум температуры воздуха на высоте 2 м над землей.
Tmax - Максимальная температура - максимум температуры воздуха на высоте 2 м над землей.
R - Количество осадков - Количество выпавших осадков за период времени, мм. При наведении курсора мыши на число - период времени, за который выпало указанное количество осадков.
R24 - Количество осадков - Количество выпавших осадков за 24 часа, мм.
S - Снежный покров - Высота снежного покрова, см. При наведении курсора мыши на число - состояние снежного покрова и степень покрытия местности в баллах.